This is the latest recevied weather packets stored in our database for station/object GAPWX. If no packets are shown the sender has not sent any weather packets the latest 10 day(s).
| Time | Temp. | Humidity | Pressure | Rain* | Wind** | Luminosity | Snow |
|---|---|---|---|---|---|---|---|
| 1777625479 | 5° C | 63% | 1017.2 hPa | 0 mm | - | - | - |
| 1777624278 | 5.56° C | 63% | 1017.3 hPa | 0 mm | - | - | - |
| 1777623671 | 5.56° C | 62% | 1017.4 hPa | 0 mm | - | - | - |
| 1777623370 | 5.56° C | 62% | 1017.3 hPa | 0 mm | - | - | - |
| 1777622775 | 5.56° C | 62% | 1017.3 hPa | 0 mm | - | - | - |
| 1777622468 | 5.56° C | 62% | 1017.3 hPa | 0 mm | - | - | - |
| 1777621863 | 6.11° C | 62% | 1017.3 hPa | 0 mm | - | - | - |
| 1777621561 | 6.11° C | 62% | 1017.3 hPa | 0 mm | - | - | - |
| 1777621261 | 6.11° C | 62% | 1017.3 hPa | 0 mm | - | - | - |
| 1777620960 | 6.11° C | 62% | 1017.3 hPa | 0 mm | - | - | - |
| 1777620355 | 6.67° C | 63% | 1017.3 hPa | 0 mm | - | - | - |
| 1777620057 | 6.67° C | 63% | 1017.3 hPa | 0 mm | - | - | - |
| 1777618550 | 6.67° C | 63% | 1017.2 hPa | 0 mm | - | - | - |
| 1777617947 | 6.67° C | 63% | 1017.2 hPa | 0 mm | - | - | - |
| 1777617042 | 6.67° C | 62% | 1017.2 hPa | 0 mm | - | - | - |
| 1777615534 | 7.22° C | 61% | 1017.2 hPa | 0 mm | - | - | - |
| 1777615233 | 7.22° C | 60% | 1017.2 hPa | 0 mm | - | - | - |
| 1777613726 | 7.78° C | 60% | 1017.2 hPa | 0 mm | - | - | - |
| 1777613123 | 7.78° C | 59% | 1017.2 hPa | 0 mm | - | - | - |
| 1777611919 | 8.33° C | 58% | 1017.3 hPa | 0 mm | - | - | - |
| 1777611316 | 8.89° C | 58% | 1017.2 hPa | 0 mm | - | - | - |
| 1777611015 | 8.89° C | 58% | 1017.2 hPa | 0 mm | - | - | - |
| 1777610715 | 8.89° C | 57% | 1017.3 hPa | 0 mm | - | - | - |
| 1777610413 | 8.89° C | 57% | 1017.1 hPa | 0 mm | - | - | - |
| 1777608905 | 10° C | 56% | 1016.9 hPa | 0 mm | - | - | - |
* Rain since midnight (hover to see other rain measurements)
** Current wind speed in m/s (hover to see current wind gust speed)